Location: Newark
(40.4333°N, 3.7000°W)
Time: 18:43:42
(UTC+00:00)

OTV 5 (USA 277) - Visible Passes

Search period start: 20 October 2019 00:00
Search period end: 30 October 2019 00:00
Orbit: 310 x 324 km, 54.5° (Epoch: 17 October)

Date Brightness Start Highest point End Pass type
(mag) Time Alt. Az. Time Alt. Az. Time Alt. Az.
20 Oct ? 05:05:03 50° NNW 05:05:34 67° NE 05:08:17 10° SE visible
21 Oct ? 05:19:47 35° WSW 05:20:04 36° SW 05:22:36 10° SSE visible
22 Oct ? 05:34:41 13° SW 05:34:41 13° SW 05:35:45 10° SSW visible
27 Oct ? 18:22:03 10° S 18:24:02 19° SE 18:24:02 19° SE visible
28 Oct ? 18:35:49 10° SW 18:38:30 59° SE 18:38:40 57° ESE visible
29 Oct ? 18:50:26 10° WSW 18:53:03 42° NW 18:53:10 42° NNW visible
